Weather in Manas

Russia / Republic of Dagestan     42°43′27″N   47°40′54″E
temp.,
°C
wind,
m/s
gust,
m/s
humid.,
%
clouds,
%
prec.,
mm/h
press.,
hPa
HPBL,
m
2 march, tue
tue200:00+4s118161 0.0 102857
03:00+4wnw118067 0.0 102829
06:00+3wnw018383 0.0 102923
09:00+5ese117485 0.0 1029106
12:00+5e337121 0.0 1027333
15:00+6ese347011 0.0 1026321
18:00+6se56720 0.0 1025248
21:00+5sse45750 0.0 1025110
3 march, wed
wed300:00+5sse34770 0.0 102383
03:00+4sse34780 0.0 102192
06:00+4s01800 0.0 102055
09:00+5n33710 0.0 1019212
12:00+5nne337662 0.0 1017339
15:00+6nne668238 0.1 1017447
18:00+5nne227568 0.1 1019199
21:00+6wnw377284 0.1 1022472
4 march, thu
thu400:00+4nnw8137673 0.8 1024773
03:00+4nw8156742 0.8 1025836
06:00+3nw1015700 0.0 1027800
09:00+4nnw710560 0.0 1028916
12:00+5nne44550 0.0 1028616
15:00+4ese55580 0.0 1026481
18:00+4se89680 0.0 1026746
21:00+4sse810730 0.0 1026523
5 march, fri
fri500:00+4sse797611 0.0 1023463
03:00+4sse358156 0.0 1022219
06:00+4w228376 0.0 102045
09:00+6nw337788 0.0 1020166
12:00+6n448196 0.0 1019358
15:00+6ne228462 0.1 1020259
18:00+5se338762 0.0 1021166
21:00+5sse458431 0.0 1022114
6 march, sat
sat600:00+5sse68860 0.0 1021200
03:00+5se68810 0.0 1021179
06:00+5se79780 0.0 1020196
09:00+6se810710 0.0 1019253
12:00+7se8117835 0.0 1017265
15:00+7se688218 0.0 1015203
18:00+6se458563 0.0 101492
21:00+6se348781 0.0 101349